Location: Unspecified
(41.5516°N, 88.1098°W)
Time: 00:45:46
(UTC-05:00)

Resurs 1-4 Rocket - Visible Passes

Search period start: 01 August 2014 00:00
Search period end: 11 August 2014 00:00
Orbit: 800 x 815 km, 98.3° (Epoch: 30 July)

Date Brightness Start Highest point End Pass type
(mag) Time Alt. Az. Time Alt. Az. Time Alt. Az.
01 Aug 4.5 03:56:09 10° NE 03:59:47 19° E 04:03:23 10° SE visible
02 Aug 4.9 03:34:00 10° ENE 03:35:04 11° E 03:36:07 10° E visible
02 Aug 2.1 05:10:20 10° NNE 05:15:37 89° WNW 05:20:51 10° SSW visible
03 Aug 2.8 04:46:01 10° NNE 04:51:11 55° E 04:56:18 10° S visible
04 Aug 3.7 04:21:56 10° NNE 04:26:39 33° E 04:31:20 10° SSE visible
05 Aug 4.4 03:58:15 10° NE 04:02:03 20° E 04:05:49 10° SE visible
06 Aug 4.8 03:35:41 10° ENE 03:37:21 11° E 03:39:00 10° ESE visible
06 Aug 2.1 05:12:34 10° NNE 05:17:51 84° WNW 05:23:06 10° SSW visible
07 Aug 2.7 04:48:14 10° NNE 04:53:25 59° E 04:58:35 10° S visible
08 Aug 3.6 04:24:07 10° NNE 04:28:55 35° E 04:33:40 10° SSE visible
09 Aug 4.3 04:00:23 10° NE 04:04:19 21° E 04:08:14 10° SE visible
10 Aug 4.8 03:37:33 10° ENE 03:39:37 12° E 03:41:42 10° ESE visible
10 Aug 2.1 05:14:49 10° N 05:20:05 80° WNW 05:25:19 10° SSW visible
